Time,TemperatureF,DewpointF,PressureIn,WindDirection,WindDirectionDegrees,WindSpeedMPH,WindSpeedGustMPH,Humidity,HourlyPrecipIn,Conditions,Clouds,dailyrainin,SoftwareType,DateUTC
2013-08-02 00:01:00,80.1,78.8,30.06,East,90,3.4,4.9,93,0.00,,,0.00,Graphweather,2013-08-02 04:01:00,
2013-08-02 00:02:00,80.1,77.0,30.06,SSW,202,3.4,3.4,92,0.00,,,0.00,Graphweather,2013-08-02 04:02:00,
2013-08-02 00:03:00,80.1,77.0,30.06,ESE,112,3.8,3.8,92,0.00,,,0.00,Graphweather,2013-08-02 04:03:00,
2013-08-02 00:04:00,80.1,77.0,30.06,ENE,67,2.7,4.0,92,0.00,,,0.00,Graphweather,2013-08-02 04:04:00,
2013-08-02 00:05:00,80.1,77.0,30.06,ENE,67,2.5,4.0,92,0.00,,,0.00,Graphweather,2013-08-02 04:05:00,
2013-08-02 00:10:00,80.1,77.0,30.06,ENE,67,3.4,3.4,92,0.00,,,0.00,Graphweather,2013-08-02 04:10:00,
2013-08-02 00:16:00,80.1,77.0,30.06,NE,45,3.1,3.6,92,0.00,,,0.00,Graphweather,2013-08-02 04:16:00,
2013-08-02 00:21:00,80.1,77.0,30.06,South,180,2.7,3.6,92,0.00,,,0.00,Graphweather,2013-08-02 04:21:00,
2013-08-02 00:27:00,80.2,78.8,30.06,SSW,202,2.5,2.7,93,0.00,,,0.00,Graphweather,2013-08-02 04:27:00,
2013-08-02 00:30:00,80.2,78.8,30.06,NNE,22,4.0,4.7,93,0.00,,,0.00,Graphweather,2013-08-02 04:30:00,
2013-08-02 00:35:00,80.2,78.8,30.06,SSE,157,2.9,2.9,93,0.00,,,0.00,Graphweather,2013-08-02 04:35:00,
2013-08-02 00:40:00,80.2,77.0,30.06,SSE,157,2.7,4.3,92,0.00,,,0.00,Graphweather,2013-08-02 04:40:00,
2013-08-02 00:46:00,80.1,77.0,30.06,SSE,157,2.9,4.3,92,0.00,,,0.00,Graphweather,2013-08-02 04:46:00,
2013-08-02 00:51:00,79.9,78.8,30.03,SSE,157,2.7,2.7,93,0.00,,,0.00,Graphweather,2013-08-02 04:51:00,
2013-08-02 00:56:00,79.9,78.8,30.03,SSW,202,2.9,3.1,93,0.00,,,0.00,Graphweather,2013-08-02 04:56:00,
2013-08-02 01:02:00,79.7,77.0,30.03,NNE,22,3.1,4.0,92,0.00,,,0.00,Graphweather,2013-08-02 05:02:00,
2013-08-02 01:07:00,79.7,77.0,30.06,NE,45,3.6,3.6,92,0.00,,,0.00,Graphweather,2013-08-02 05:07:00,
2013-08-02 01:12:00,79.9,77.0,30.06,WSW,247,3.1,5.8,92,0.00,,,0.00,Graphweather,2013-08-02 05:12:00,
2013-08-02 01:17:00,79.7,77.0,30.06,East,90,3.1,4.0,92,0.00,,,0.00,Graphweather,2013-08-02 05:17:00,
2013-08-02 01:22:00,79.7,78.8,30.06,ESE,112,3.6,3.6,93,0.00,,,0.00,Graphweather,2013-08-02 05:22:00,
2013-08-02 01:27:00,79.9,77.0,30.06,WNW,292,2.9,3.1,92,0.00,,,0.00,Graphweather,2013-08-02 05:27:00,
2013-08-02 01:33:00,80.1,77.0,30.06,East,90,1.6,3.8,92,0.00,,,0.00,Graphweather,2013-08-02 05:33:00,
2013-08-02 01:38:00,80.1,77.0,30.03,SW,225,4.0,4.3,92,0.00,,,0.00,Graphweather,2013-08-02 05:38:00,
2013-08-02 01:43:00,80.1,77.0,30.03,NNE,22,4.3,5.6,90,0.00,,,0.00,Graphweather,2013-08-02 05:43:00,
2013-08-02 01:48:00,79.9,77.0,30.03,South,180,2.5,5.4,91,0.00,,,0.00,Graphweather,2013-08-02 05:48:00,
2013-08-02 01:53:00,79.9,77.0,30.03,East,90,2.9,6.5,90,0.00,,,0.00,Graphweather,2013-08-02 05:53:00,
2013-08-02 01:58:00,79.7,77.0,30.03,SSW,202,2.2,2.9,90,0.00,,,0.00,Graphweather,2013-08-02 05:58:00,
2013-08-02 02:04:00,79.7,77.0,30.03,East,90,2.0,3.8,91,0.00,,,0.00,Graphweather,2013-08-02 06:04:00,
2013-08-02 02:09:00,79.7,77.0,30.03,NNE,22,2.9,3.1,91,0.00,,,0.00,Graphweather,2013-08-02 06:09:00,
2013-08-02 02:14:00,79.7,77.0,30.03,ENE,67,2.9,6.3,91,0.00,,,0.00,Graphweather,2013-08-02 06:14:00,
2013-08-02 02:19:00,79.7,77.0,30.03,East,90,3.6,3.6,91,0.00,,,0.00,Graphweather,2013-08-02 06:19:00,
2013-08-02 02:24:00,79.7,77.0,30.03,SSE,157,4.3,5.6,89,0.00,,,0.00,Graphweather,2013-08-02 06:24:00,
2013-08-02 02:29:00,79.7,77.0,30.03,SSE,157,4.5,4.5,89,0.00,,,0.00,Graphweather,2013-08-02 06:29:00,
2013-08-02 02:35:00,79.7,77.0,30.03,NNE,22,2.7,3.4,89,0.00,,,0.00,Graphweather,2013-08-02 06:35:00,
2013-08-02 02:40:00,79.5,77.0,30.03,SSE,157,1.6,2.2,90,0.00,,,0.00,Graphweather,2013-08-02 06:40:00,
2013-08-02 02:45:00,79.5,77.0,30.03,East,90,2.5,3.1,89,0.00,,,0.00,Graphweather,2013-08-02 06:45:00,
2013-08-02 02:50:00,79.5,77.0,30.03,SSW,202,2.5,3.6,90,0.00,,,0.00,Graphweather,2013-08-02 06:50:00,
2013-08-02 02:55:00,79.5,77.0,30.03,NE,45,2.9,4.9,90,0.00,,,0.00,Graphweather,2013-08-02 06:55:00,
2013-08-02 03:01:00,79.5,77.0,30.03,ESE,112,2.7,2.7,91,0.00,,,0.00,Graphweather,2013-08-02 07:01:00,
2013-08-02 03:06:00,79.5,77.0,30.03,ENE,67,2.7,3.4,92,0.00,,,0.00,Graphweather,2013-08-02 07:06:00,
2013-08-02 03:11:00,79.5,77.0,30.03,East,90,3.4,4.0,92,0.00,,,0.00,Graphweather,2013-08-02 07:11:00,
2013-08-02 03:16:00,79.7,77.0,30.03,East,90,3.1,4.3,92,0.00,,,0.00,Graphweather,2013-08-02 07:16:00,
2013-08-02 03:21:00,79.5,77.0,30.03,East,90,2.0,5.4,92,0.00,,,0.00,Graphweather,2013-08-02 07:21:00,
2013-08-02 03:27:00,79.5,77.0,30.03,SE,135,4.5,6.0,92,0.00,,,0.00,Graphweather,2013-08-02 07:27:00,
2013-08-02 03:32:00,79.5,77.0,30.03,ENE,67,3.1,3.1,91,0.00,,,0.00,Graphweather,2013-08-02 07:32:00,
2013-08-02 03:37:00,79.5,77.0,30.03,East,90,2.2,3.1,91,0.00,,,0.00,Graphweather,2013-08-02 07:37:00,
2013-08-02 03:42:00,79.5,77.0,30.03,SSW,202,4.3,4.9,91,0.00,,,0.00,Graphweather,2013-08-02 07:42:00,
2013-08-02 03:48:00,79.5,77.0,30.03,SW,225,4.0,4.0,90,0.00,,,0.00,Graphweather,2013-08-02 07:48:00,
2013-08-02 03:53:00,79.5,77.0,30.03,SSE,157,2.0,3.6,91,0.00,,,0.00,Graphweather,2013-08-02 07:53:00,
2013-08-02 03:58:00,79.3,77.0,30.03,SE,135,2.7,3.1,91,0.00,,,0.00,Graphweather,2013-08-02 07:58:00,
2013-08-02 04:03:00,79.5,77.0,30.03,ENE,67,2.5,3.4,90,0.00,,,0.00,Graphweather,2013-08-02 08:03:00,
2013-08-02 04:08:00,79.5,77.0,30.03,NNE,22,2.9,5.4,90,0.00,,,0.00,Graphweather,2013-08-02 08:08:00,
2013-08-02 04:13:00,79.5,77.0,30.03,ENE,67,2.2,3.8,91,0.00,,,0.00,Graphweather,2013-08-02 08:13:00,
2013-08-02 04:18:00,79.5,77.0,30.03,SSE,157,3.4,3.4,92,0.00,,,0.00,Graphweather,2013-08-02 08:18:00,
2013-08-02 04:23:00,79.5,77.0,30.03,ESE,112,2.7,4.3,92,0.00,,,0.00,Graphweather,2013-08-02 08:23:00,
2013-08-02 04:28:00,79.5,77.0,30.03,NE,45,2.0,3.4,92,0.00,,,0.00,Graphweather,2013-08-02 08:28:00,
2013-08-02 04:34:00,79.3,77.0,30.03,SSE,157,2.5,3.6,92,0.00,,,0.00,Graphweather,2013-08-02 08:34:00,
2013-08-02 04:39:00,79.5,77.0,30.03,SE,135,3.4,3.6,92,0.00,,,0.00,Graphweather,2013-08-02 08:39:00,
2013-08-02 04:44:00,79.7,78.8,30.03,ESE,112,3.6,5.8,94,0.00,,,0.00,Graphweather,2013-08-02 08:44:00,
2013-08-02 04:49:00,79.5,77.0,30.03,ESE,112,4.0,7.4,94,0.00,,,0.00,Graphweather,2013-08-02 08:49:00,
2013-08-02 04:54:00,79.5,77.0,30.03,ENE,67,2.2,2.9,94,0.00,,,0.00,Graphweather,2013-08-02 08:54:00,
2013-08-02 04:59:00,79.3,78.8,30.03,SE,135,3.6,6.0,95,0.00,,,0.00,Graphweather,2013-08-02 08:59:00,
2013-08-02 05:04:00,79.5,78.8,30.03,ESE,112,4.3,7.6,95,0.00,,,0.00,Graphweather,2013-08-02 09:04:00,
2013-08-02 05:10:00,79.3,77.0,30.03,SE,135,4.0,4.0,94,0.00,,,0.00,Graphweather,2013-08-02 09:10:00,
2013-08-02 05:15:00,78.8,77.0,30.03,SSE,157,2.5,3.6,95,0.00,,,0.00,Graphweather,2013-08-02 09:15:00,
2013-08-02 05:20:00,78.3,77.0,30.03,ESE,112,2.9,2.9,96,0.00,,,0.00,Graphweather,2013-08-02 09:20:00,
2013-08-02 05:25:00,78.1,77.0,30.03,South,180,3.6,3.6,97,0.00,,,0.00,Graphweather,2013-08-02 09:25:00,
2013-08-02 05:30:00,77.2,77.0,30.03,SSW,202,3.8,5.6,97,0.04,,,0.04,Graphweather,2013-08-02 09:30:00,
2013-08-02 05:35:00,76.8,77.0,30.06,WNW,292,3.6,3.6,97,0.04,,,0.04,Graphweather,2013-08-02 09:35:00,
2013-08-02 05:40:00,76.6,75.2,30.06,SSE,157,3.1,3.8,97,0.04,,,0.04,Graphweather,2013-08-02 09:40:00,
2013-08-02 05:46:00,76.6,75.2,30.06,South,180,3.1,3.1,97,0.04,,,0.04,Graphweather,2013-08-02 09:46:00,
2013-08-02 05:52:00,76.8,77.0,30.06,ENE,67,4.5,5.4,96,0.00,,,0.04,Graphweather,2013-08-02 09:52:00,
2013-08-02 05:57:00,76.6,75.2,30.06,SSE,157,3.6,3.6,94,0.00,,,0.04,Graphweather,2013-08-02 09:57:00,
2013-08-02 06:02:00,77.0,75.2,30.06,NNE,22,4.9,5.4,94,0.00,,,0.04,Graphweather,2013-08-02 10:02:00,
2013-08-02 06:07:00,77.2,75.2,30.09,East,90,3.4,3.4,94,0.00,,,0.04,Graphweather,2013-08-02 10:07:00,
2013-08-02 06:12:00,77.5,75.2,30.09,East,90,4.0,4.0,94,0.00,,,0.04,Graphweather,2013-08-02 10:12:00,
2013-08-02 06:18:00,77.9,77.0,30.09,NE,45,3.4,4.0,93,0.00,,,0.04,Graphweather,2013-08-02 10:18:00,
2013-08-02 06:23:00,78.4,77.0,30.06,WNW,292,4.0,6.0,93,0.00,,,0.04,Graphweather,2013-08-02 10:23:00,
2013-08-02 06:28:00,78.8,77.0,30.06,South,180,3.4,3.4,92,0.00,,,0.04,Graphweather,2013-08-02 10:28:00,
2013-08-02 06:33:00,79.0,77.0,30.06,NNE,22,3.6,3.8,92,0.00,,,0.04,Graphweather,2013-08-02 10:33:00,
2013-08-02 06:39:00,79.5,77.0,30.06,SSE,157,4.0,4.0,90,0.00,,,0.04,Graphweather,2013-08-02 10:39:00,
2013-08-02 06:44:00,79.9,77.0,30.06,ESE,112,3.4,3.8,88,0.00,,,0.04,Graphweather,2013-08-02 10:44:00,
2013-08-02 06:49:00,80.2,77.0,30.06,ESE,112,3.6,4.7,87,0.00,,,0.04,Graphweather,2013-08-02 10:49:00,
2013-08-02 06:55:00,80.6,77.0,30.06,SE,135,3.8,5.4,86,0.00,,,0.04,Graphweather,2013-08-02 10:55:00,
2013-08-02 07:00:00,81.1,77.0,30.06,ESE,112,3.6,3.6,86,0.00,,,0.04,Graphweather,2013-08-02 11:00:00,
2013-08-02 07:05:00,81.5,77.0,30.06,South,180,3.1,4.0,85,0.00,,,0.04,Graphweather,2013-08-02 11:05:00,
2013-08-02 07:10:00,82.0,77.0,30.06,ESE,112,2.5,2.7,85,0.00,,,0.04,Graphweather,2013-08-02 11:10:00,
2013-08-02 07:15:00,82.2,77.0,30.06,WSW,247,3.8,5.4,83,0.00,,,0.04,Graphweather,2013-08-02 11:15:00,
2013-08-02 07:20:00,82.6,77.0,30.06,NNE,22,4.3,4.3,82,0.00,,,0.04,Graphweather,2013-08-02 11:20:00,
2013-08-02 07:26:00,83.1,77.0,30.06,ENE,67,3.4,4.3,82,0.00,,,0.04,Graphweather,2013-08-02 11:26:00,
2013-08-02 07:31:00,83.7,77.0,30.06,East,90,2.7,4.9,81,0.00,,,0.04,Graphweather,2013-08-02 11:31:00,
2013-08-02 07:36:00,84.4,77.0,30.06,SSW,202,2.9,3.1,79,0.00,,,0.04,Graphweather,2013-08-02 11:36:00,
2013-08-02 07:41:00,84.7,77.0,30.06,ESE,112,3.8,3.8,78,0.00,,,0.04,Graphweather,2013-08-02 11:41:00,
2013-08-02 07:47:00,85.1,77.0,30.06,SSW,202,3.4,6.3,78,0.00,,,0.04,Graphweather,2013-08-02 11:47:00,
2013-08-02 07:52:00,85.8,77.0,30.09,East,90,3.4,3.8,77,0.00,,,0.04,Graphweather,2013-08-02 11:52:00,
2013-08-02 07:57:00,86.2,77.0,30.09,South,180,3.1,3.1,76,0.00,,,0.04,Graphweather,2013-08-02 11:57:00,
2013-08-02 08:02:00,86.4,78.8,30.09,ENE,67,3.1,3.1,75,0.00,,,0.04,Graphweather,2013-08-02 12:02:00,
2013-08-02 08:07:00,86.5,78.8,30.09,South,180,4.3,4.3,75,0.00,,,0.04,Graphweather,2013-08-02 12:07:00,
2013-08-02 08:13:00,87.1,78.8,30.09,WNW,292,4.0,4.0,74,0.00,,,0.04,Graphweather,2013-08-02 12:13:00,
2013-08-02 08:18:00,87.8,78.8,30.09,SSW,202,3.1,3.6,74,0.00,,,0.04,Graphweather,2013-08-02 12:18:00,
2013-08-02 08:23:00,88.2,78.8,30.09,ESE,112,3.4,3.4,74,0.00,,,0.04,Graphweather,2013-08-02 12:23:00,
2013-08-02 08:28:00,88.3,78.8,30.09,ENE,67,3.1,3.4,72,0.00,,,0.04,Graphweather,2013-08-02 12:28:00,
2013-08-02 08:33:00,88.7,78.8,30.09,East,90,4.7,6.0,70,0.00,,,0.04,Graphweather,2013-08-02 12:33:00,
2013-08-02 08:38:00,89.6,78.8,30.09,NE,45,4.0,6.0,68,0.00,,,0.04,Graphweather,2013-08-02 12:38:00,
2013-08-02 08:44:00,89.4,78.8,30.09,NNE,22,3.8,4.9,69,0.00,,,0.04,Graphweather,2013-08-02 12:44:00,
2013-08-02 08:49:00,90.1,78.8,30.09,NNE,22,3.8,4.0,68,0.00,,,0.04,Graphweather,2013-08-02 12:49:00,
2013-08-02 08:54:00,90.3,77.0,30.09,NNE,22,3.4,3.4,66,0.00,,,0.04,Graphweather,2013-08-02 12:54:00,
2013-08-02 09:00:00,90.9,78.8,30.09,SSE,157,3.4,3.6,66,0.00,,,0.04,Graphweather,2013-08-02 13:00:00,
2013-08-02 09:05:00,91.0,78.8,30.09,WNW,292,3.8,5.6,66,0.00,,,0.04,Graphweather,2013-08-02 13:05:00,
2013-08-02 09:10:00,91.6,78.8,30.09,SSW,202,3.1,4.0,65,0.00,,,0.04,Graphweather,2013-08-02 13:10:00,
2013-08-02 09:15:00,91.8,77.0,30.09,ESE,112,3.4,4.3,63,0.00,,,0.04,Graphweather,2013-08-02 13:15:00,
2013-08-02 09:21:00,92.1,78.8,30.09,NE,45,3.6,5.6,65,0.00,,,0.04,Graphweather,2013-08-02 13:21:00,
2013-08-02 09:26:00,92.5,78.8,30.09,SSE,157,3.1,3.1,63,0.00,,,0.04,Graphweather,2013-08-02 13:26:00,
2013-08-02 09:31:00,91.9,78.8,30.09,West,270,2.7,2.9,64,0.00,,,0.04,Graphweather,2013-08-02 13:31:00,
2013-08-02 09:36:00,91.4,78.8,30.09,NE,45,2.9,4.0,64,0.00,,,0.04,Graphweather,2013-08-02 13:36:00,
2013-08-02 09:41:00,91.8,78.8,30.09,West,270,4.7,7.4,65,0.00,,,0.04,Graphweather,2013-08-02 13:41:00,
2013-08-02 09:46:00,92.1,77.0,30.09,ESE,112,3.8,6.5,63,0.00,,,0.04,Graphweather,2013-08-02 13:46:00,
2013-08-02 09:52:00,92.1,78.8,30.09,ESE,112,5.4,5.4,64,0.00,,,0.04,Graphweather,2013-08-02 13:52:00,
2013-08-02 09:57:00,91.4,78.8,30.09,East,90,4.0,6.5,64,0.00,,,0.04,Graphweather,2013-08-02 13:57:00,
2013-08-02 10:02:00,92.5,78.8,30.09,ENE,67,3.6,8.5,63,0.00,,,0.04,Graphweather,2013-08-02 14:02:00,
2013-08-02 10:07:00,91.8,78.8,30.12,NE,45,3.6,6.0,64,0.00,,,0.04,Graphweather,2013-08-02 14:07:00,
2013-08-02 10:12:00,91.2,78.8,30.12,ESE,112,3.4,5.6,65,0.00,,,0.04,Graphweather,2013-08-02 14:12:00,
2013-08-02 10:18:00,91.9,78.8,30.12,East,90,4.0,6.0,65,0.00,,,0.04,Graphweather,2013-08-02 14:18:00,
2013-08-02 10:23:00,91.2,78.8,30.12,WNW,292,3.1,5.8,67,0.00,,,0.04,Graphweather,2013-08-02 14:23:00,
2013-08-02 10:28:00,92.5,78.8,30.12,East,90,5.4,6.5,64,0.00,,,0.04,Graphweather,2013-08-02 14:28:00,
2013-08-02 10:33:00,92.1,78.8,30.12,SSE,157,4.9,6.0,64,0.00,,,0.04,Graphweather,2013-08-02 14:33:00,
2013-08-02 10:39:00,94.1,80.6,30.09,NNE,22,2.5,3.6,64,0.00,,,0.04,Graphweather,2013-08-02 14:39:00,
2013-08-02 10:44:00,94.5,80.6,30.09,ENE,67,2.9,5.6,63,0.00,,,0.04,Graphweather,2013-08-02 14:44:00,
2013-08-02 10:49:00,94.5,80.6,30.12,NE,45,3.8,8.1,63,0.00,,,0.04,Graphweather,2013-08-02 14:49:00,
2013-08-02 10:54:00,94.3,78.8,30.12,NE,45,3.6,4.3,62,0.00,,,0.04,Graphweather,2013-08-02 14:54:00,
2013-08-02 11:00:00,95.0,80.6,30.12,NNE,22,2.9,2.9,62,0.00,,,0.04,Graphweather,2013-08-02 15:00:00,
2013-08-02 11:05:00,94.8,78.8,30.09,WSW,247,5.8,6.3,60,0.00,,,0.04,Graphweather,2013-08-02 15:05:00,
2013-08-02 11:10:00,94.1,78.8,30.09,SE,135,4.3,5.6,59,0.00,,,0.04,Graphweather,2013-08-02 15:10:00,
2013-08-02 11:16:00,93.6,78.8,30.09,SSW,202,4.9,10.5,61,0.00,,,0.04,Graphweather,2013-08-02 15:16:00,
2013-08-02 11:21:00,93.4,77.0,30.09,SSE,157,5.6,9.8,61,0.00,,,0.04,Graphweather,2013-08-02 15:21:00,
2013-08-02 11:26:00,94.3,78.8,30.09,NNE,22,4.3,4.3,61,0.00,,,0.04,Graphweather,2013-08-02 15:26:00,
2013-08-02 11:31:00,93.7,78.8,30.09,NNE,22,3.6,4.3,62,0.00,,,0.04,Graphweather,2013-08-02 15:31:00,
2013-08-02 11:36:00,93.7,78.8,30.09,NNE,22,4.0,4.0,62,0.00,,,0.04,Graphweather,2013-08-02 15:36:00,
2013-08-02 11:41:00,94.3,78.8,30.09,East,90,4.9,5.4,60,0.00,,,0.04,Graphweather,2013-08-02 15:41:00,
2013-08-02 11:46:00,94.3,78.8,30.09,ENE,67,4.3,5.8,61,0.00,,,0.04,Graphweather,2013-08-02 15:46:00,
2013-08-02 11:52:00,94.5,78.8,30.09,SE,135,4.7,5.4,60,0.00,,,0.04,Graphweather,2013-08-02 15:52:00,
2013-08-02 11:57:00,94.3,77.0,30.09,NE,45,5.4,10.7,58,0.00,,,0.04,Graphweather,2013-08-02 15:57:00,
2013-08-02 12:02:00,94.1,78.8,30.09,SSW,202,3.4,3.6,59,0.00,,,0.04,Graphweather,2013-08-02 16:02:00,
2013-08-02 12:07:00,93.9,77.0,30.09,East,90,4.9,5.4,59,0.00,,,0.04,Graphweather,2013-08-02 16:07:00,
2013-08-02 12:12:00,94.1,78.8,30.09,NNE,22,4.5,6.3,59,0.00,,,0.04,Graphweather,2013-08-02 16:12:00,
2013-08-02 12:18:00,94.1,78.8,30.09,SSW,202,3.4,5.6,60,0.00,,,0.04,Graphweather,2013-08-02 16:18:00,
2013-08-02 12:23:00,94.1,78.8,30.09,East,90,4.7,4.7,60,0.00,,,0.04,Graphweather,2013-08-02 16:23:00,
2013-08-02 12:28:00,93.2,77.0,30.09,SSW,202,4.0,7.4,61,0.00,,,0.04,Graphweather,2013-08-02 16:28:00,
2013-08-02 12:34:00,93.4,78.8,30.09,ESE,112,3.8,7.2,62,0.00,,,0.04,Graphweather,2013-08-02 16:34:00,
2013-08-02 12:39:00,91.8,77.0,30.09,SSE,157,4.5,4.5,63,0.00,,,0.04,Graphweather,2013-08-02 16:39:00,
2013-08-02 12:44:00,93.0,77.0,30.09,NE,45,4.0,4.0,62,0.00,,,0.04,Graphweather,2013-08-02 16:44:00,
2013-08-02 12:49:00,94.1,78.8,30.09,NE,45,3.8,8.5,62,0.00,,,0.04,Graphweather,2013-08-02 16:49:00,
2013-08-02 12:55:00,93.7,78.8,30.09,SE,135,4.7,6.0,61,0.00,,,0.04,Graphweather,2013-08-02 16:55:00,
2013-08-02 13:00:00,93.2,78.8,30.09,North,0,4.0,4.0,62,0.00,,,0.04,Graphweather,2013-08-02 17:00:00,
2013-08-02 13:05:00,93.0,77.0,30.09,NNW,337,4.3,5.6,62,0.00,,,0.04,Graphweather,2013-08-02 17:05:00,
2013-08-02 13:10:00,92.1,77.0,30.09,NNE,22,4.0,4.0,62,0.00,,,0.04,Graphweather,2013-08-02 17:10:00,
2013-08-02 13:16:00,92.3,78.8,30.09,ENE,67,4.7,4.7,64,0.00,,,0.04,Graphweather,2013-08-02 17:16:00,
2013-08-02 13:21:00,92.7,78.8,30.06,ENE,67,5.6,5.6,63,0.00,,,0.04,Graphweather,2013-08-02 17:21:00,
2013-08-02 13:26:00,93.0,77.0,30.06,East,90,4.0,4.0,62,0.00,,,0.04,Graphweather,2013-08-02 17:26:00,
2013-08-02 13:31:00,93.4,78.8,30.06,NNE,22,3.1,6.3,62,0.00,,,0.04,Graphweather,2013-08-02 17:31:00,
2013-08-02 13:37:00,93.7,78.8,30.06,ESE,112,3.8,4.5,62,0.00,,,0.04,Graphweather,2013-08-02 17:37:00,
2013-08-02 13:42:00,92.8,77.0,30.06,NE,45,5.8,5.8,61,0.00,,,0.04,Graphweather,2013-08-02 17:42:00,
2013-08-02 13:47:00,93.2,78.8,30.06,ENE,67,3.4,3.4,62,0.00,,,0.04,Graphweather,2013-08-02 17:47:00,
2013-08-02 13:53:00,93.6,78.8,30.06,South,180,4.5,4.5,61,0.00,,,0.04,Graphweather,2013-08-02 17:53:00,
2013-08-02 13:58:00,92.3,78.8,30.06,SSE,157,2.9,3.4,63,0.00,,,0.04,Graphweather,2013-08-02 17:58:00,
2013-08-02 14:03:00,91.9,78.8,30.06,SSW,202,3.8,4.7,64,0.00,,,0.04,Graphweather,2013-08-02 18:03:00,
2013-08-02 14:08:00,92.8,78.8,30.06,East,90,3.6,3.6,64,0.00,,,0.04,Graphweather,2013-08-02 18:08:00,
2013-08-02 14:14:00,92.8,77.0,30.06,SSE,157,4.0,4.0,62,0.00,,,0.04,Graphweather,2013-08-02 18:14:00,
2013-08-02 14:19:00,92.5,78.8,30.03,SE,135,4.7,4.9,63,0.00,,,0.04,Graphweather,2013-08-02 18:19:00,
2013-08-02 14:24:00,91.8,78.8,30.03,SE,135,4.0,4.9,64,0.00,,,0.04,Graphweather,2013-08-02 18:24:00,
2013-08-02 14:29:00,92.3,78.8,30.03,ENE,67,4.7,8.9,65,0.00,,,0.04,Graphweather,2013-08-02 18:29:00,
2013-08-02 14:35:00,91.4,78.8,30.09,SSW,202,5.4,5.4,65,0.00,,,0.04,Graphweather,2013-08-02 18:35:00,
2013-08-02 14:40:00,91.2,78.8,30.09,South,180,5.4,7.8,65,0.00,,,0.04,Graphweather,2013-08-02 18:40:00,
2013-08-02 14:45:00,91.0,78.8,30.09,NE,45,5.8,6.0,66,0.00,,,0.04,Graphweather,2013-08-02 18:45:00,
2013-08-02 14:50:00,91.4,78.8,30.06,SSE,157,3.6,3.6,66,0.00,,,0.04,Graphweather,2013-08-02 18:50:00,
2013-08-02 14:55:00,90.7,78.8,30.06,NNE,22,5.4,5.4,65,0.00,,,0.04,Graphweather,2013-08-02 18:55:00,
2013-08-02 15:00:00,90.7,78.8,30.06,West,270,4.7,4.9,66,0.00,,,0.04,Graphweather,2013-08-02 19:00:00,
2013-08-02 15:06:00,91.0,78.8,30.06,WSW,247,3.8,4.3,65,0.00,,,0.04,Graphweather,2013-08-02 19:06:00,
2013-08-02 15:11:00,91.0,77.0,30.06,SW,225,4.0,4.0,64,0.00,,,0.04,Graphweather,2013-08-02 19:11:00,
2013-08-02 15:24:00,89.8,77.0,30.06,South,180,4.5,4.5,65,0.00,,,0.04,Graphweather,2013-08-02 19:24:00,
2013-08-02 15:30:00,90.0,77.0,30.06,SSW,202,5.4,5.4,66,0.00,,,0.04,Graphweather,2013-08-02 19:30:00,
2013-08-02 15:35:00,89.6,78.8,30.06,WNW,292,4.3,4.3,68,0.00,,,0.04,Graphweather,2013-08-02 19:35:00,
2013-08-02 15:40:00,89.2,77.0,30.06,NE,45,5.6,6.5,67,0.00,,,0.04,Graphweather,2013-08-02 19:40:00,
2013-08-02 15:45:00,88.5,77.0,30.06,South,180,6.0,6.0,69,0.00,,,0.04,Graphweather,2013-08-02 19:45:00,
2013-08-02 15:51:00,88.5,77.0,30.03,West,270,4.5,6.9,70,0.00,,,0.04,Graphweather,2013-08-02 19:51:00,
2013-08-02 15:57:00,89.1,78.8,30.03,ENE,67,4.3,4.3,70,0.00,,,0.04,Graphweather,2013-08-02 19:57:00,
2013-08-02 16:02:00,88.7,78.8,30.03,NNW,337,4.5,5.6,70,0.00,,,0.04,Graphweather,2013-08-02 20:02:00,
2013-08-02 16:07:00,87.6,78.8,30.06,ENE,67,3.6,6.7,72,0.00,,,0.04,Graphweather,2013-08-02 20:07:00,
2013-08-02 16:13:00,88.0,78.8,30.06,NNW,337,4.3,5.4,72,0.00,,,0.04,Graphweather,2013-08-02 20:13:00,
2013-08-02 16:18:00,87.3,77.0,30.06,ENE,67,4.0,6.3,73,0.00,,,0.04,Graphweather,2013-08-02 20:18:00,
2013-08-02 16:23:00,86.9,78.8,30.06,NNW,337,4.0,6.0,76,0.00,,,0.04,Graphweather,2013-08-02 20:23:00,
2013-08-02 16:28:00,85.6,77.0,30.06,NNE,22,4.9,5.6,77,0.00,,,0.04,Graphweather,2013-08-02 20:28:00,
2013-08-02 16:33:00,85.3,77.0,30.06,East,90,3.8,6.5,78,0.00,,,0.04,Graphweather,2013-08-02 20:33:00,
2013-08-02 16:39:00,85.6,77.0,30.03,SSE,157,4.7,7.8,78,0.00,,,0.04,Graphweather,2013-08-02 20:39:00,
2013-08-02 16:44:00,84.9,77.0,30.03,SSW,202,3.1,5.4,77,0.00,,,0.04,Graphweather,2013-08-02 20:44:00,
2013-08-02 16:49:00,84.9,78.8,30.06,ENE,67,3.6,4.0,80,0.00,,,0.04,Graphweather,2013-08-02 20:49:00,
2013-08-02 16:54:00,84.6,78.8,30.06,South,180,4.7,6.0,81,0.00,,,0.04,Graphweather,2013-08-02 20:54:00,
2013-08-02 16:59:00,84.2,78.8,30.06,WSW,247,4.5,4.5,81,0.00,,,0.04,Graphweather,2013-08-02 20:59:00,
2013-08-02 17:05:00,84.0,78.8,30.06,East,90,3.1,5.4,82,0.00,,,0.04,Graphweather,2013-08-02 21:05:00,
2013-08-02 17:10:00,83.8,78.8,30.06,SSE,157,3.4,3.4,82,0.00,,,0.04,Graphweather,2013-08-02 21:10:00,
2013-08-02 17:15:00,84.0,78.8,30.06,SSE,157,3.4,7.6,83,0.00,,,0.04,Graphweather,2013-08-02 21:15:00,
2013-08-02 17:20:00,83.7,78.8,30.06,NNE,22,3.4,4.9,84,0.00,,,0.04,Graphweather,2013-08-02 21:20:00,
2013-08-02 17:26:00,83.7,78.8,30.06,North,0,2.7,3.1,84,0.00,,,0.04,Graphweather,2013-08-02 21:26:00,
2013-08-02 17:31:00,83.5,78.8,30.06,SE,135,3.4,3.6,84,0.00,,,0.04,Graphweather,2013-08-02 21:31:00,
2013-08-02 17:36:00,83.5,78.8,30.06,NE,45,3.6,4.5,85,0.00,,,0.04,Graphweather,2013-08-02 21:36:00,
2013-08-02 17:41:00,83.3,78.8,30.06,ENE,67,3.4,3.6,85,0.00,,,0.04,Graphweather,2013-08-02 21:41:00,
2013-08-02 17:46:00,82.9,78.8,30.06,ENE,67,4.7,4.7,86,0.00,,,0.04,Graphweather,2013-08-02 21:46:00,
2013-08-02 17:52:00,82.8,78.8,30.06,ESE,112,3.8,3.8,88,0.00,,,0.04,Graphweather,2013-08-02 21:52:00,
2013-08-02 17:57:00,82.4,78.8,30.06,ENE,67,5.4,5.4,86,0.00,,,0.04,Graphweather,2013-08-02 21:57:00,
2013-08-02 18:02:00,82.2,78.8,30.06,North,0,4.9,10.5,86,0.00,,,0.04,Graphweather,2013-08-02 22:02:00,
2013-08-02 18:07:00,82.2,78.8,30.06,ESE,112,3.8,7.6,87,0.00,,,0.04,Graphweather,2013-08-02 22:07:00,
2013-08-02 18:12:00,82.0,78.8,30.06,SSW,202,3.6,3.6,87,0.00,,,0.04,Graphweather,2013-08-02 22:12:00,
2013-08-02 18:18:00,82.0,78.8,30.06,NNE,22,3.8,5.6,88,0.00,,,0.04,Graphweather,2013-08-02 22:18:00,
2013-08-02 18:23:00,81.9,78.8,30.06,SSW,202,3.4,3.4,87,0.00,,,0.04,Graphweather,2013-08-02 22:23:00,
2013-08-02 18:28:00,81.7,78.8,30.06,SSE,157,5.4,5.4,87,0.00,,,0.04,Graphweather,2013-08-02 22:28:00,
2013-08-02 18:33:00,81.7,78.8,30.06,SSE,157,4.5,4.5,87,0.00,,,0.04,Graphweather,2013-08-02 22:33:00,
2013-08-02 18:39:00,81.5,78.8,30.09,SE,135,3.1,3.6,88,0.00,,,0.04,Graphweather,2013-08-02 22:39:00,
2013-08-02 18:44:00,81.3,77.0,30.09,WNW,292,4.0,4.0,88,0.00,,,0.04,Graphweather,2013-08-02 22:44:00,
2013-08-02 18:50:00,81.3,77.0,30.06,SSW,202,3.6,3.8,88,0.00,,,0.04,Graphweather,2013-08-02 22:50:00,
2013-08-02 18:55:00,81.1,78.8,30.06,South,180,4.5,6.3,89,0.00,,,0.04,Graphweather,2013-08-02 22:55:00,
2013-08-02 19:00:00,81.1,78.8,30.06,SSW,202,3.6,3.6,89,0.00,,,0.04,Graphweather,2013-08-02 23:00:00,
2013-08-02 19:09:00,81.1,78.8,30.03,SSE,157,2.5,3.4,90,0.00,,,0.04,Graphweather,2013-08-02 23:09:00,
2013-08-02 19:19:00,81.0,78.8,30.03,North,0,4.7,9.8,90,0.00,,,0.04,Graphweather,2013-08-02 23:19:00,
2013-08-02 19:30:00,81.0,78.8,30.03,South,180,4.3,4.3,90,0.00,,,0.04,Graphweather,2013-08-02 23:30:00,
2013-08-02 19:40:00,81.0,78.8,30.06,ESE,112,3.8,4.9,90,0.00,,,0.04,Graphweather,2013-08-02 23:40:00,
2013-08-02 19:46:00,81.0,78.8,30.06,WNW,292,4.3,6.7,89,0.00,,,0.04,Graphweather,2013-08-02 23:46:00,
2013-08-02 19:51:00,81.0,78.8,30.06,ESE,112,4.3,5.4,89,0.00,,,0.04,Graphweather,2013-08-02 23:51:00,
2013-08-02 19:56:00,81.0,78.8,30.06,South,180,3.6,4.3,90,0.00,,,0.04,Graphweather,2013-08-02 23:56:00,
2013-08-02 20:02:00,80.8,77.0,30.06,SSE,157,4.3,7.8,89,0.00,,,0.04,Graphweather,2013-08-03 00:02:00,
2013-08-02 20:07:00,80.8,77.0,30.06,SSW,202,4.5,4.5,90,0.00,,,0.04,Graphweather,2013-08-03 00:07:00,
2013-08-02 20:12:00,80.8,77.0,30.06,East,90,3.6,7.2,90,0.00,,,0.04,Graphweather,2013-08-03 00:12:00,
2013-08-02 20:18:00,81.0,78.8,30.06,ESE,112,5.4,5.4,90,0.00,,,0.04,Graphweather,2013-08-03 00:18:00,
2013-08-02 20:23:00,81.0,78.8,30.09,SE,135,4.3,5.8,89,0.00,,,0.04,Graphweather,2013-08-03 00:23:00,
2013-08-02 20:28:00,81.0,78.8,30.09,WSW,247,3.8,7.4,89,0.00,,,0.04,Graphweather,2013-08-03 00:28:00,
2013-08-02 20:33:00,81.0,78.8,30.09,NNE,22,4.3,6.0,91,0.00,,,0.04,Graphweather,2013-08-03 00:33:00,
2013-08-02 20:39:00,80.8,78.8,30.09,East,90,4.0,5.4,91,0.00,,,0.04,Graphweather,2013-08-03 00:39:00,
2013-08-02 20:44:00,80.8,78.8,30.09,SSE,157,4.9,7.4,91,0.00,,,0.04,Graphweather,2013-08-03 00:44:00,
2013-08-02 20:49:00,80.8,78.8,30.09,SSW,202,3.8,3.8,91,0.00,,,0.04,Graphweather,2013-08-03 00:49:00,
2013-08-02 20:54:00,80.8,78.8,30.09,ESE,112,4.3,5.8,92,0.00,,,0.04,Graphweather,2013-08-03 00:54:00,
2013-08-02 20:59:00,80.8,78.8,30.09,ENE,67,4.3,5.6,92,0.00,,,0.04,Graphweather,2013-08-03 00:59:00,
2013-08-02 21:05:00,80.6,77.0,30.09,ESE,112,5.4,5.4,90,0.00,,,0.04,Graphweather,2013-08-03 01:05:00,
2013-08-02 21:10:00,80.6,77.0,30.09,South,180,4.3,6.7,90,0.00,,,0.04,Graphweather,2013-08-03 01:10:00,
2013-08-02 21:15:00,80.8,77.0,30.09,South,180,4.3,4.3,90,0.00,,,0.04,Graphweather,2013-08-03 01:15:00,
2013-08-02 21:20:00,81.0,78.8,30.12,SSE,157,3.8,3.8,90,0.00,,,0.04,Graphweather,2013-08-03 01:20:00,
2013-08-02 21:26:00,81.1,78.8,30.12,SSW,202,4.0,6.9,91,0.00,,,0.04,Graphweather,2013-08-03 01:26:00,
2013-08-02 21:39:00,80.8,78.8,30.12,SSE,157,4.3,4.3,91,0.00,,,0.04,Graphweather,2013-08-03 01:39:00,
2013-08-02 21:44:00,80.8,77.0,30.12,South,180,3.6,5.6,90,0.00,,,0.04,Graphweather,2013-08-03 01:44:00,
2013-08-02 21:54:00,80.8,77.0,30.12,SE,135,3.8,4.0,90,0.00,,,0.04,Graphweather,2013-08-03 01:54:00,
2013-08-02 21:59:00,80.6,78.8,30.12,SSE,157,4.0,5.6,91,0.00,,,0.04,Graphweather,2013-08-03 01:59:00,
2013-08-02 22:05:00,80.6,78.8,30.12,SE,135,3.6,3.6,91,0.00,,,0.04,Graphweather,2013-08-03 02:05:00,
2013-08-02 22:10:00,80.6,78.8,30.12,WNW,292,4.0,5.4,91,0.00,,,0.04,Graphweather,2013-08-03 02:10:00,
2013-08-02 22:16:00,80.6,78.8,30.12,SSW,202,4.0,4.0,91,0.00,,,0.04,Graphweather,2013-08-03 02:16:00,
2013-08-02 22:21:00,80.6,78.8,30.12,NE,45,3.8,6.0,91,0.00,,,0.04,Graphweather,2013-08-03 02:21:00,
2013-08-02 22:26:00,80.6,78.8,30.12,East,90,4.3,4.9,91,0.00,,,0.04,Graphweather,2013-08-03 02:26:00,
2013-08-02 22:31:00,80.6,78.8,30.12,East,90,3.8,3.8,91,0.00,,,0.04,Graphweather,2013-08-03 02:31:00,
2013-08-02 22:36:00,80.6,78.8,30.12,South,180,3.4,7.6,91,0.00,,,0.04,Graphweather,2013-08-03 02:36:00,
2013-08-02 22:42:00,80.8,78.8,30.12,South,180,2.7,3.6,91,0.00,,,0.04,Graphweather,2013-08-03 02:42:00,
2013-08-02 22:47:00,80.8,78.8,30.12,SSW,202,2.9,2.9,91,0.00,,,0.04,Graphweather,2013-08-03 02:47:00,
2013-08-02 22:52:00,80.8,78.8,30.12,North,0,4.5,4.5,91,0.00,,,0.04,Graphweather,2013-08-03 02:52:00,
2013-08-02 22:57:00,80.8,78.8,30.12,NNE,22,4.0,5.4,92,0.00,,,0.04,Graphweather,2013-08-03 02:57:00,
2013-08-02 23:03:00,80.8,78.8,30.12,WNW,292,3.6,3.6,91,0.00,,,0.04,Graphweather,2013-08-03 03:03:00,
2013-08-02 23:08:00,80.8,78.8,30.12,ESE,112,3.4,5.6,92,0.00,,,0.04,Graphweather,2013-08-03 03:08:00,
2013-08-02 23:13:00,81.0,78.8,30.12,SSE,157,5.4,9.6,92,0.00,,,0.04,Graphweather,2013-08-03 03:13:00,
2013-08-02 23:18:00,81.0,78.8,30.12,WSW,247,4.9,5.6,92,0.00,,,0.04,Graphweather,2013-08-03 03:18:00,
2013-08-02 23:24:00,81.0,78.8,30.12,SSW,202,3.8,9.4,92,0.00,,,0.04,Graphweather,2013-08-03 03:24:00,
2013-08-02 23:29:00,81.0,78.8,30.12,SW,225,4.0,5.4,92,0.00,,,0.04,Graphweather,2013-08-03 03:29:00,
2013-08-02 23:34:00,81.0,78.8,30.12,East,90,3.6,5.6,92,0.00,,,0.04,Graphweather,2013-08-03 03:34:00,
2013-08-02 23:39:00,81.0,78.8,30.12,NNE,22,3.1,3.4,92,0.00,,,0.04,Graphweather,2013-08-03 03:39:00,
2013-08-02 23:44:00,81.0,78.8,30.12,NE,45,5.4,6.0,92,0.00,,,0.04,Graphweather,2013-08-03 03:44:00,
2013-08-02 23:50:00,81.0,78.8,30.09,NNE,22,4.0,6.5,92,0.00,,,0.04,Graphweather,2013-08-03 03:50:00,
2013-08-02 23:55:00,81.0,78.8,30.09,ENE,67,2.9,3.8,92,0.00,,,0.04,Graphweather,2013-08-03 03:55:00,